2021/10/30 23:29:10+0000,-39.89,-50.54,-33.00,-47.46,-52.21,-54.01
2021/10/30 23:30:03+0000,-39.85,-49.97,-32.42,-46.45,-51.98,-53.89
2021/10/30 23:31:02+0000,-39.23,-48.57,-32.88,-46.69,-10.67,-54.04
2021/10/30 23:31:54+0000,-39.11,-49.38,-32.68,-45.86,-11.24,-54.29
2021/10/30 23:32:46+0000,-39.15,-49.55,-32.39,-46.70,-11.46,-54.04
2021/10/30 23:33:38+0000,-38.93,-48.59,-32.15,-48.41,-51.10,-54.74
2021/10/30 23:34:30+0000,-39.83,-47.37,-32.97,-44.09,-51.49,-53.79
2021/10/30 23:35:22+0000,-38.56,-51.20,-33.48,-46.25,-11.33,-53.94
2021/10/30 23:36:14+0000,-38.80,-48.66,-32.84,-46.31,-11.12,-53.10
2021/10/30 23:37:06+0000,-39.73,-48.67,-32.57,-47.07,-50.61,-53.69
2021/10/30 23:37:58+0000,-39.20,-48.40,-32.54,-45.52,-50.46,-53.56
2021/10/30 23:38:50+0000,-39.13,-47.72,-33.33,-48.69,-10.80,-54.56
2021/10/30 23:39:42+0000,-40.20,-49.01,-32.79,-47.90,-10.91,-53.74
2021/10/30 23:40:35+0000,-39.95,-49.47,-32.53,-48.46,-51.17,-53.78
2021/10/30 23:41:34+0000,-40.23,-44.70,-31.87,-48.37,-49.96,-52.61
2021/10/30 23:42:26+0000,-40.08,-46.72,-32.60,-47.37,-51.90,-53.56
2021/10/30 23:43:18+0000,-39.51,-49.87,-32.84,-48.38,-11.19,-53.47
2021/10/30 23:44:10+0000,-39.93,-50.39,-32.11,-48.31,-52.14,-54.32
2021/10/30 23:45:02+0000,-39.98,-45.18,-31.72,-45.54,-50.26,-53.76
2021/10/30 23:45:54+0000,-40.02,-47.68,-33.17,-46.00,-11.08,-53.30
2021/10/30 23:46:46+0000,-41.23,-48.71,-33.07,-48.29,-51.01,-54.04
2021/10/30 23:47:38+0000,-41.15,-47.95,-33.58,-47.57,-50.81,-53.90
2021/10/30 23:48:31+0000,-41.21,-48.28,-32.53,-46.69,-51.43,-53.61
2021/10/30 23:49:23+0000,-40.15,-50.58,-33.76,-46.21,-51.69,-52.65
2021/10/30 23:50:15+0000,-39.69,-48.47,-33.10,-47.90,-51.81,-53.68
2021/10/30 23:51:14+0000,-39.50,-46.88,-33.14,-47.62,-51.46,-53.31
2021/10/30 23:52:06+0000,-39.93,-47.80,-32.70,-48.02,-51.46,-53.74
2021/10/30 23:52:58+0000,-40.26,-43.84,-33.26,-45.28,-51.51,-54.16
2021/10/30 23:53:50+0000,-39.90,-45.85,-33.11,-48.49,-51.52,-55.74
2021/10/30 23:54:42+0000,-39.30,-47.08,-32.54,-48.19,-52.27,-55.66
2021/10/30 23:55:34+0000,-39.88,-45.00,-32.28,-48.24,-51.52,-54.72
2021/10/30 23:56:26+0000,-39.67,-45.26,-32.36,-45.69,-52.89,-55.22
2021/10/30 23:57:18+0000,-39.85,-47.39,-33.15,-46.90,-52.25,-55.83
2021/10/30 23:58:10+0000,-39.75,-47.64,-32.95,-47.19,-51.88,-55.34
2021/10/30 23:59:03+0000,-39.84,-45.69,-33.01,-45.64,-51.19,-42.31
2021/10/30 23:59:55+0000,-40.28,-46.83,-32.98,-47.29,-52.09,-55.30
2021/10/31 00:00:49+0000,-40.34,-46.43,-33.12,-47.96,-51.88,-55.37
2021/10/31 00:01:49+0000,-39.43,-49.28,-32.78,-47.82,-51.67,-55.14
2021/10/31 00:02:42+0000,-40.22,-46.18,-33.37,-46.96,-52.51,-55.41
2021/10/31 00:03:34+0000,-39.84,-45.50,-33.18,-48.89,-51.47,-55.28
2021/10/31 00:04:26+0000,-39.75,-46.62,-33.38,-47.09,-52.89,-54.66
2021/10/31 00:05:18+0000,-40.16,-48.64,-32.73,-48.47,-52.38,-55.22
2021/10/31 00:06:10+0000,-39.44,-47.83,-32.81,-46.71,-51.76,-55.76
2021/10/31 00:07:02+0000,-39.87,-46.00,-33.24,-46.69,-51.61,-55.57
2021/10/31 00:07:54+0000,-40.56,-47.14,-32.94,-47.74,-52.05,-55.54
2021/10/31 00:08:46+0000,-40.61,-47.88,-33.15,-47.74,-51.62,-55.80
2021/10/31 00:09:38+0000,-39.66,-46.66,-33.41,-47.51,-52.10,-54.55
2021/10/31 00:10:30+0000,-40.26,-47.71,-33.06,-47.64,-51.67,-55.02
2021/10/31 00:11:28+0000,-39.42,-47.48,-33.15,-47.68,-51.87,-55.80
2021/10/31 00:12:20+0000,-39.80,-49.60,-32.74,-47.53,-52.17,-54.39
2021/10/31 00:13:12+0000,-39.65,-46.21,-33.63,-47.59,-52.46,-54.09
2021/10/31 00:14:04+0000,-39.70,-45.83,-33.39,-49.04,-51.16,-54.33
2021/10/31 00:14:56+0000,-39.44,-45.01,-33.44,-47.72,-50.90,-52.46
2021/10/31 00:15:48+0000,-38.34,-48.16,-33.03,-49.90,-52.50,-52.42
2021/10/31 00:16:41+0000,-39.43,-48.66,-33.15,-48.69,-53.02,-52.81
2021/10/31 00:17:33+0000,-40.09,-45.12,-32.92,-50.57,-51.52,-53.52
2021/10/31 00:18:25+0000,-39.89,-45.12,-32.93,-48.16,-52.38,-54.08
2021/10/31 00:19:17+0000,-39.55,-48.48,-32.79,-49.68,-52.07,-54.28
2021/10/31 00:20:09+0000,-39.68,-48.58,-32.42,-49.82,-51.95,-54.05
2021/10/31 00:21:12+0000,-39.46,-48.14,-32.94,-48.50,-51.73,-55.45
2021/10/31 00:22:04+0000,-38.18,-47.07,-32.40,-51.48,-50.21,-54.54
2021/10/31 00:22:56+0000,-38.52,-46.40,-32.97,-49.81,-52.33,-54.96
2021/10/31 00:23:48+0000,-39.07,-47.51,-33.28,-51.68,-51.21,-54.99
2021/10/31 00:24:40+0000,-39.25,-48.75,-32.95,-49.30,-53.08,-54.54
2021/10/31 00:25:32+0000,-39.14,-39.98,-32.84,-50.31,-51.18,-54.72
2021/10/31 00:26:24+0000,-38.13,-41.08,-33.05,-49.88,-53.55,-54.74
2021/10/31 00:27:16+0000,-39.41,-47.89,-32.63,-49.76,-50.95,-54.98
2021/10/31 00:28:08+0000,-39.79,-48.37,-32.52,-49.77,-51.30,-55.01
2021/10/31 00:29:01+0000,-40.31,-41.22,-32.85,-50.18,-51.53,-55.51
2021/10/31 00:29:53+0000,-39.75,-41.76,-33.11,-50.59,-51.50,-55.66
2021/10/31 00:30:45+0000,-39.69,-46.92,-32.86,-49.64,-51.64,-55.04
2021/10/31 00:31:48+0000,-38.11,-47.12,-32.95,-52.14,-52.44,-54.71
2021/10/31 00:32:40+0000,-38.80,-47.25,-32.57,-48.00,-53.49,-54.60
2021/10/31 00:33:32+0000,-39.43,-38.16,-32.92,-48.10,-51.13,-54.27
2021/10/31 00:34:24+0000,-40.08,-46.02,-33.29,-48.97,-51.98,-53.84
2021/10/31 00:35:16+0000,-39.77,-47.64,-32.86,-48.62,-52.56,-54.65
2021/10/31 00:36:08+0000,-38.60,-49.21,-32.42,-49.24,-51.62,-54.11
2021/10/31 00:37:00+0000,-39.70,-45.03,-32.94,-50.24,-52.19,-53.73
2021/10/31 00:37:52+0000,-39.45,-50.51,-33.50,-50.47,-52.27,-53.90
2021/10/31 00:38:44+0000,-39.70,-40.74,-33.34,-50.30,-51.63,-54.64
2021/10/31 00:39:36+0000,-39.47,-48.36,-33.31,-50.54,-52.78,-55.08
2021/10/31 00:40:29+0000,-39.34,-45.74,-33.83,-46.33,-51.88,-55.24
2021/10/31 00:41:27+0000,-39.65,-45.61,-33.37,-46.98,-51.56,-55.35
2021/10/31 00:42:19+0000,-39.63,-43.51,-33.63,-52.78,-51.99,-55.48
2021/10/31 00:43:11+0000,-39.53,-49.48,-32.81,-47.85,-52.70,-54.77
2021/10/31 00:44:03+0000,-39.87,-47.68,-32.92,-51.05,-51.41,-55.02
2021/10/31 00:44:55+0000,-38.68,-48.49,-32.59,-48.04,-52.29,-55.14
2021/10/31 00:45:47+0000,-38.74,-49.18,-33.40,-48.60,-52.66,-55.03
2021/10/31 00:46:39+0000,-40.10,-49.17,-33.34,-49.34,-52.21,-55.00
2021/10/31 00:47:31+0000,-38.95,-46.53,-33.07,-47.42,-51.49,-54.98
2021/10/31 00:48:24+0000,-39.50,-47.33,-33.18,-48.41,-50.44,-55.04
2021/10/31 00:49:16+0000,-40.46,-49.22,-32.99,-48.74,-52.02,-55.08
2021/10/31 00:50:08+0000,-39.80,-48.95,-32.46,-50.80,-51.58,-55.51
2021/10/31 00:51:06+0000,-39.46,-50.33,-32.99,-50.62,-52.01,-54.67
2021/10/31 00:51:58+0000,-39.47,-48.31,-33.20,-48.44,-51.77,-55.13
2021/10/31 00:52:50+0000,-39.58,-46.63,-32.85,-52.26,-50.96,-55.56
2021/10/31 00:53:42+0000,-39.41,-44.69,-32.91,-50.14,-52.38,-54.91
2021/10/31 00:54:34+0000,-39.92,-47.35,-32.33,-52.29,-52.32,-55.01
2021/10/31 00:55:26+0000,-38.93,-48.20,-33.13,-50.19,-52.87,-55.13
2021/10/31 00:56:18+0000,-38.50,-47.70,-33.40,-52.60,-51.16,-55.52
2021/10/31 00:57:10+0000,-39.15,-45.68,-32.93,-51.29,-53.25,-54.88
2021/10/31 00:58:02+0000,-39.75,-48.39,-33.25,-48.45,-50.94,-55.30
2021/10/31 00:58:55+0000,-38.54,-48.96,-33.48,-51.37,-52.26,-55.62
2021/10/31 00:59:47+0000,-39.82,-47.20,-33.47,-49.83,-51.58,-55.51
2021/10/31 01:00:39+0000,-38.71,-45.23,-32.81,-48.83,-50.62,-54.66
2021/10/31 01:01:43+0000,-38.31,-46.41,-33.44,-49.00,-51.30,-54.84
2021/10/31 01:02:35+0000,-37.76,-49.55,-33.24,-49.16,-50.03,-54.25
2021/10/31 01:03:27+0000,-37.57,-47.65,-33.15,-49.37,-50.95,-55.03
2021/10/31 01:04:19+0000,-38.13,-47.56,-33.59,-51.98,-50.08,-54.95
2021/10/31 01:05:11+0000,-38.35,-45.80,-33.16,-51.60,-50.99,-54.41
2021/10/31 01:06:03+0000,-38.56,-48.51,-32.82,-53.04,-49.04,-54.30
2021/10/31 01:06:55+0000,-37.81,-47.30,-33.46,-49.78,-52.48,-54.56
2021/10/31 01:07:48+0000,-36.93,-46.85,-33.36,-51.00,-50.24,-55.37
2021/10/31 01:08:40+0000,-38.15,-45.04,-33.66,-49.37,-52.42,-55.01
2021/10/31 01:09:32+0000,-38.41,-47.68,-32.76,-53.01,-49.47,-54.90
2021/10/31 01:10:24+0000,-37.62,-48.00,-33.10,-52.11,-52.55,-54.93
2021/10/31 01:11:22+0000,-38.48,-48.34,-33.41,-51.95,-49.86,-55.29
2021/10/31 01:12:14+0000,-38.80,-46.89,-32.39,-49.83,-50.32,-55.01
2021/10/31 01:13:06+0000,-38.35,-48.16,-32.37,-49.54,-51.72,-54.75
2021/10/31 01:13:59+0000,-38.62,-48.24,-32.93,-52.08,-52.02,-55.39
2021/10/31 01:14:51+0000,-37.69,-48.79,-33.48,-51.08,-50.91,-54.66
2021/10/31 01:15:43+0000,-38.56,-47.28,-33.67,-48.51,-50.67,-55.69
2021/10/31 01:16:35+0000,-37.81,-48.59,-32.37,-49.77,-52.60,-55.06
2021/10/31 01:17:27+0000,-38.41,-48.80,-32.64,-51.37,-52.09,-55.48
2021/10/31 01:18:19+0000,-38.06,-45.97,-32.67,-53.42,-51.56,-55.47
2021/10/31 01:19:11+0000,-39.04,-46.78,-32.76,-51.38,-52.46,-54.79
2021/10/31 01:20:03+0000,-38.16,-47.55,-31.46,-53.78,-51.75,-54.17
2021/10/31 01:21:07+0000,-38.89,-49.99,-33.09,-44.28,-52.52,-54.82
2021/10/31 01:21:59+0000,-39.20,-48.33,-32.42,-50.97,-51.42,-55.59
2021/10/31 01:22:51+0000,-40.54,-48.57,-32.44,-48.62,-52.01,-54.90
2021/10/31 01:23:43+0000,-39.42,-47.45,-32.54,-50.96,-51.55,-54.50
2021/10/31 01:24:35+0000,-40.07,-46.73,-33.02,-52.34,-51.91,-54.51
2021/10/31 01:25:27+0000,-38.80,-47.75,-32.76,-46.25,-52.65,-54.90
2021/10/31 01:26:19+0000,-37.14,-46.26,-32.70,-52.52,-51.96,-55.35
2021/10/31 01:27:11+0000,-38.38,-48.19,-32.98,-51.90,-51.79,-54.57
2021/10/31 01:28:03+0000,-37.90,-44.55,-32.90,-49.86,-51.71,-54.21
2021/10/31 01:28:55+0000,-38.91,-45.66,-32.99,-50.13,-52.30,-55.19
2021/10/31 01:29:48+0000,-39.24,-47.92,-32.82,-52.42,-52.09,-55.18
2021/10/31 01:30:40+0000,-39.12,-48.50,-32.18,-52.17,-52.46,-54.40
2021/10/31 01:31:44+0000,-38.84,-46.64,-32.53,-51.49,-51.83,-54.63
2021/10/31 01:32:36+0000,-37.29,-48.36,-31.97,-52.13,-52.17,-54.95
2021/10/31 01:33:28+0000,-35.12,-46.12,-32.51,-48.87,-52.70,-55.28
2021/10/31 01:34:20+0000,-39.23,-45.18,-32.87,-53.57,-51.62,-55.84
2021/10/31 01:35:12+0000,-39.77,-43.61,-33.44,-51.84,-52.37,-55.10
2021/10/31 01:36:04+0000,-39.62,-46.45,-32.08,-52.68,-52.83,-54.67
2021/10/31 01:36:56+0000,-38.40,-46.70,-32.79,-50.44,-52.48,-55.41
2021/10/31 01:37:48+0000,-38.23,-43.24,-32.37,-50.70,-52.44,-55.15
2021/10/31 01:38:40+0000,-37.83,-43.77,-33.12,-50.71,-52.67,-54.70
2021/10/31 01:39:32+0000,-39.05,-45.29,-32.50,-49.02,-52.43,-54.72
2021/10/31 01:40:24+0000,-38.77,-45.57,-32.47,-49.15,-53.40,-55.06
2021/10/31 01:41:28+0000,-38.90,-45.93,-32.70,-50.51,-52.28,-55.11
2021/10/31 01:42:20+0000,-39.17,-45.01,-32.58,-52.49,-52.22,-55.19
2021/10/31 01:43:12+0000,-33.37,-45.05,-32.30,-50.71,-52.67,-55.52
2021/10/31 01:44:04+0000,-34.96,-45.55,-32.59,-53.47,-52.42,-55.30
2021/10/31 01:44:56+0000,-38.43,-45.70,-32.62,-51.79,-52.98,-55.50
2021/10/31 01:45:48+0000,-38.71,-45.74,-32.45,-53.32,-52.52,-54.99
2021/10/31 01:46:41+0000,-38.76,-46.86,-32.19,-50.78,-52.76,-54.89
2021/10/31 01:47:33+0000,-39.84,-45.29,-32.84,-50.33,-52.57,-55.34
2021/10/31 01:48:25+0000,-27.65,-45.57,-32.97,-52.06,-52.51,-55.08
2021/10/31 01:49:17+0000,-39.11,-44.47,-32.89,-51.14,-52.61,-55.13
2021/10/31 01:50:09+0000,-39.39,-46.64,-32.28,-51.26,-52.88,-55.63
2021/10/31 01:51:08+0000,-39.50,-47.54,-32.35,-51.27,-53.30,-55.19
2021/10/31 01:52:00+0000,-38.87,-45.98,-33.45,-51.64,-52.71,-54.86
2021/10/31 01:52:52+0000,-38.70,-47.63,-33.33,-51.94,-53.29,-55.44
2021/10/31 01:53:44+0000,-38.94,-46.04,-32.45,-51.77,-52.53,-55.31
2021/10/31 01:54:36+0000,-38.84,-46.56,-32.17,-52.53,-53.09,-55.08
2021/10/31 01:55:28+0000,-38.87,-46.01,-32.90,-52.20,-52.84,-55.50
2021/10/31 01:56:20+0000,-38.66,-44.26,-33.20,-53.39,-53.12,-55.43
2021/10/31 01:57:12+0000,-38.07,-44.30,-33.03,-51.81,-52.47,-55.13
2021/10/31 01:58:04+0000,-38.38,-45.76,-32.65,-53.58,-53.15,-55.80
2021/10/31 01:58:56+0000,-38.28,-46.10,-32.77,-52.91,-52.60,-54.75
2021/10/31 01:59:49+0000,-38.58,-45.27,-32.55,-52.37,-52.47,-55.35
2021/10/31 02:00:41+0000,-37.43,-45.08,-32.74,-51.46,-52.15,-55.74
2021/10/31 02:01:40+0000,-35.96,-45.85,-32.85,-51.66,-52.43,-54.98
2021/10/31 02:02:32+0000,-31.47,-47.51,-32.94,-53.22,-52.55,-55.01
2021/10/31 02:03:24+0000,-38.57,-46.52,-31.95,-52.52,-52.57,-54.81
2021/10/31 02:04:16+0000,-39.16,-46.14,-33.19,-52.97,-52.02,-55.19
2021/10/31 02:05:08+0000,-28.57,-45.92,-32.66,-52.62,-51.98,-55.50
2021/10/31 02:06:00+0000,-39.06,-46.75,-32.85,-52.54,-52.27,-55.03
2021/10/31 02:06:52+0000,-39.02,-47.04,-33.17,-52.90,-52.63,-55.17
2021/10/31 02:07:44+0000,-38.73,-46.44,-33.43,-52.36,-51.74,-55.61
2021/10/31 02:08:36+0000,-30.86,-48.47,-33.26,-53.06,-52.35,-55.84
2021/10/31 02:09:28+0000,-38.23,-47.04,-32.87,-53.13,-52.38,-55.26
2021/10/31 02:10:20+0000,-37.51,-50.60,-33.04,-52.94,-52.53,-55.47
2021/10/31 02:11:19+0000,-38.74,-47.33,-33.16,-53.81,-52.08,-55.65
2021/10/31 02:12:11+0000,-34.88,-45.38,-32.65,-53.30,-52.56,-55.22
2021/10/31 02:13:03+0000,-35.84,-47.62,-32.69,-53.75,-49.71,-54.84
2021/10/31 02:13:56+0000,-38.64,-48.11,-33.39,-53.14,-51.95,-55.11
2021/10/31 02:14:48+0000,-38.42,-46.84,-33.35,-53.92,-52.28,-55.13
2021/10/31 02:15:40+0000,-34.05,-46.98,-32.41,-52.73,-52.72,-55.26
2021/10/31 02:16:32+0000,-35.18,-47.94,-32.93,-51.97,-45.96,-55.21
2021/10/31 02:17:24+0000,-38.05,-48.77,-32.78,-52.74,-52.40,-54.94
2021/10/31 02:18:16+0000,-38.14,-47.12,-33.07,-52.86,-52.38,-55.11
2021/10/31 02:19:08+0000,-38.32,-46.39,-32.64,-51.99,-45.79,-55.14
2021/10/31 02:20:00+0000,-38.80,-48.31,-33.11,-51.97,-52.88,-55.12
2021/10/31 02:21:09+0000,-36.99,-46.02,-33.23,-52.96,-52.20,-55.24
2021/10/31 02:22:01+0000,-39.74,-48.72,-32.86,-52.20,-52.65,-56.28
2021/10/31 02:22:53+0000,-38.60,-47.72,-33.71,-53.02,-52.83,-55.84
2021/10/31 02:23:45+0000,-38.69,-45.81,-33.11,-52.41,-52.34,-54.99
2021/10/31 02:24:37+0000,-38.87,-49.65,-32.54,-53.58,-52.60,-54.73
2021/10/31 02:25:29+0000,-38.33,-49.16,-33.01,-51.99,-52.16,-55.08
2021/10/31 02:26:21+0000,-38.03,-50.00,-32.72,-52.29,-52.28,-54.79
2021/10/31 02:27:13+0000,-38.11,-47.96,-33.19,-52.56,-52.29,-55.10
2021/10/31 02:28:05+0000,-38.25,-47.83,-32.32,-53.85,-52.30,-55.27
2021/10/31 02:28:57+0000,-38.09,-46.61,-32.37,-52.79,-52.66,-54.84
2021/10/31 02:29:49+0000,-39.16,-45.77,-32.47,-53.89,-52.90,-55.46
2021/10/31 02:30:41+0000,-37.71,-46.32,-32.89,-52.62,-52.78,-54.85
2021/10/31 02:31:40+0000,-38.35,-45.50,-33.61,-52.03,-52.38,-55.28
2021/10/31 02:32:32+0000,-38.35,-45.86,-32.78,-52.99,-52.39,-55.65
2021/10/31 02:33:24+0000,-37.32,-46.16,-32.63,-53.04,-52.63,-55.47
2021/10/31 02:34:16+0000,-39.40,-45.95,-33.17,-52.52,-52.48,-55.12
2021/10/31 02:35:08+0000,-38.25,-48.17,-32.53,-53.02,-52.50,-54.74
2021/10/31 02:36:00+0000,-40.09,-46.21,-32.23,-52.52,-52.60,-55.21
2021/10/31 02:36:52+0000,-33.49,-48.00,-33.40,-52.50,-52.46,-55.33
2021/10/31 02:37:44+0000,-40.50,-44.59,-33.19,-51.24,-49.42,-55.14
2021/10/31 02:38:36+0000,-39.56,-47.59,-33.08,-52.33,-52.17,-55.49
2021/10/31 02:39:28+0000,-38.02,-45.47,-32.95,-53.19,-52.27,-54.44
2021/10/31 02:40:21+0000,-39.22,-47.55,-32.40,-52.89,-52.20,-55.49
2021/10/31 02:41:30+0000,-39.72,-46.08,-32.47,-53.84,-52.57,-55.70
2021/10/31 02:42:22+0000,-34.69,-48.26,-32.93,-52.34,-52.63,-55.30
2021/10/31 02:43:14+0000,-39.09,-46.27,-31.96,-51.49,-52.82,-55.22
2021/10/31 02:44:06+0000,-39.29,-46.53,-32.50,-52.22,-53.23,-55.48
2021/10/31 02:44:58+0000,-36.02,-46.25,-32.42,-52.80,-52.55,-55.33
2021/10/31 02:45:50+0000,-35.74,-46.90,-32.25,-53.37,-52.32,-55.01
2021/10/31 02:46:42+0000,-39.13,-43.85,-33.16,-52.61,-52.35,-55.28
2021/10/31 02:47:34+0000,-39.02,-45.66,-32.76,-53.20,-52.91,-54.83
2021/10/31 02:48:26+0000,-31.34,-46.07,-32.60,-53.17,-52.19,-54.91
2021/10/31 02:49:19+0000,-32.35,-45.80,-32.52,-53.76,-52.70,-54.52
2021/10/31 02:50:11+0000,-38.92,-45.24,-32.13,-54.08,-52.57,-54.94
2021/10/31 02:51:09+0000,-38.71,-45.92,-32.18,-53.76,-52.67,-54.57
2021/10/31 02:52:01+0000,-38.52,-46.42,-32.69,-53.69,-52.35,-54.63
2021/10/31 02:52:53+0000,-36.10,-47.63,-32.46,-53.56,-52.25,-54.63
2021/10/31 02:53:45+0000,-38.43,-45.61,-33.14,-53.26,-51.89,-54.99
2021/10/31 02:54:37+0000,-37.98,-47.23,-32.69,-53.08,-52.58,-54.63
2021/10/31 02:55:30+0000,-37.92,-46.02,-33.09,-53.10,-52.19,-54.65
2021/10/31 02:56:22+0000,-37.48,-46.94,-32.48,-53.11,-52.45,-54.72
2021/10/31 02:57:14+0000,-38.75,-45.51,-32.85,-53.73,-52.15,-54.78
2021/10/31 02:58:06+0000,-38.94,-47.34,-32.85,-53.71,-52.15,-54.43
2021/10/31 02:58:58+0000,-37.81,-46.38,-32.68,-52.89,-51.90,-55.08
2021/10/31 02:59:50+0000,-36.19,-45.07,-33.19,-53.65,-52.41,-54.58
2021/10/31 03:00:42+0000,-38.31,-46.58,-32.89,-54.07,-52.54,-54.82
2021/10/31 03:01:49+0000,-38.43,-47.96,-33.43,-53.99,-52.90,-54.57
2021/10/31 03:02:41+0000,-34.41,-46.90,-32.81,-53.26,-52.22,-54.79
2021/10/31 03:03:33+0000,-36.24,-49.33,-32.68,-53.55,-52.21,-54.72
2021/10/31 03:04:25+0000,-38.91,-48.63,-32.76,-52.90,-52.68,-54.62
2021/10/31 03:05:17+0000,-38.81,-46.90,-32.90,-51.96,-52.75,-54.73
2021/10/31 03:06:09+0000,-38.24,-47.35,-32.74,-51.82,-52.58,-55.03
2021/10/31 03:07:01+0000,-33.05,-48.00,-32.58,-53.16,-52.56,-54.51
2021/10/31 03:07:53+0000,-37.54,-47.62,-33.40,-53.09,-52.25,-54.28
2021/10/31 03:08:45+0000,-38.38,-47.67,-32.46,-52.39,-52.70,-55.01
2021/10/31 03:09:37+0000,-38.33,-48.26,-32.67,-53.04,-52.55,-54.65
2021/10/31 03:10:30+0000,-38.35,-47.73,-32.71,-53.09,-52.28,-54.59
2021/10/31 03:11:33+0000,-37.42,-47.72,-33.11,-53.50,-52.53,-54.78
2021/10/31 03:12:25+0000,-37.47,-47.33,-33.17,-53.44,-52.37,-54.45
2021/10/31 03:13:17+0000,-38.59,-48.48,-32.72,-54.09,-52.76,-55.18
2021/10/31 03:14:09+0000,-32.45,-47.12,-32.89,-53.65,-52.76,-54.63
2021/10/31 03:15:01+0000,-33.78,-48.36,-32.70,-53.54,-52.24,-54.82
2021/10/31 03:15:53+0000,-38.45,-48.12,-32.95,-53.64,-47.19,-54.73
2021/10/31 03:16:45+0000,-39.24,-46.17,-33.18,-53.03,-51.93,-54.27
2021/10/31 03:17:37+0000,-37.25,-48.04,-32.65,-53.80,-52.54,-54.62
2021/10/31 03:18:30+0000,-38.00,-49.27,-32.73,-53.36,-52.26,-54.46
2021/10/31 03:19:22+0000,-37.81,-49.79,-33.01,-52.63,-52.66,-55.11
2021/10/31 03:20:15+0000,-38.57,-47.22,-33.10,-52.82,-51.93,-54.84
2021/10/31 03:21:13+0000,-39.17,-45.18,-33.12,-53.63,-52.37,-54.21
2021/10/31 03:22:05+0000,-36.92,-50.28,-33.21,-52.95,-52.41,-54.56
2021/10/31 03:22:57+0000,-32.86,-48.60,-33.67,-53.21,-52.32,-54.84
2021/10/31 03:23:49+0000,-39.36,-46.79,-32.61,-53.59,-52.45,-54.55
2021/10/31 03:24:41+0000,-39.43,-46.60,-33.07,-52.68,-51.88,-54.70
2021/10/31 03:25:34+0000,-39.06,-47.24,-32.49,-53.46,-52.89,-54.92
2021/10/31 03:26:26+0000,-35.10,-49.18,-32.57,-53.33,-52.55,-54.50
2021/10/31 03:27:18+0000,-37.84,-45.97,-33.13,-53.73,-51.99,-55.17
2021/10/31 03:28:10+0000,-38.54,-46.68,-32.78,-53.02,-52.13,-55.04
2021/10/31 03:29:02+0000,-38.73,-47.94,-32.47,-53.03,-51.87,-54.76
2021/10/31 03:29:54+0000,-29.91,-48.21,-33.15,-53.16,-52.28,-54.94
2021/10/31 03:30:46+0000,-37.28,-47.89,-33.14,-52.59,-52.04,-54.88
2021/10/31 03:31:45+0000,-39.59,-46.89,-32.66,-52.88,-51.68,-55.06
2021/10/31 03:32:37+0000,-39.25,-48.30,-32.52,-53.19,-52.16,-54.62
2021/10/31 03:33:29+0000,-39.72,-49.22,-31.98,-53.05,-52.32,-54.93
2021/10/31 03:34:21+0000,-31.90,-50.42,-33.11,-52.70,-52.48,-54.81
2021/10/31 03:35:13+0000,-40.26,-47.65,-32.57,-53.52,-52.93,-55.16
2021/10/31 03:36:05+0000,-39.63,-49.58,-33.52,-53.83,-52.63,-54.95
2021/10/31 03:36:57+0000,-32.77,-45.56,-33.07,-53.15,-52.91,-54.21
2021/10/31 03:37:49+0000,-38.80,-46.47,-32.29,-52.95,-52.54,-55.18
2021/10/31 03:38:42+0000,-39.71,-47.82,-32.76,-53.40,-51.73,-54.95
2021/10/31 03:39:34+0000,-39.27,-47.52,-32.64,-52.96,-51.94,-54.42
2021/10/31 03:40:26+0000,-37.82,-48.62,-33.44,-53.39,-52.86,-55.20
2021/10/31 03:41:25+0000,-38.17,-47.71,-33.17,-53.37,-51.91,-54.63
2021/10/31 03:42:17+0000,-33.09,-47.49,-33.02,-53.28,-52.39,-54.96
2021/10/31 03:43:09+0000,-38.79,-47.61,-32.92,-53.38,-51.99,-54.96
2021/10/31 03:44:01+0000,-38.43,-48.02,-32.80,-53.25,-52.59,-54.75
2021/10/31 03:44:53+0000,-39.12,-47.71,-32.73,-52.79,-52.28,-55.19
2021/10/31 03:45:45+0000,-39.75,-46.93,-32.97,-53.76,-52.59,-54.49
2021/10/31 03:46:37+0000,-39.59,-48.79,-32.54,-53.28,-52.56,-54.88
2021/10/31 03:47:29+0000,-41.03,-48.35,-31.94,-53.55,-51.99,-55.47
2021/10/31 03:48:21+0000,-31.13,-49.42,-32.79,-53.68,-51.89,-55.12
2021/10/31 03:49:13+0000,-40.57,-47.19,-32.42,-53.54,-52.75,-54.74
2021/10/31 03:50:06+0000,-39.11,-48.69,-32.41,-53.29,-52.95,-54.81
2021/10/31 03:51:05+0000,-39.42,-48.60,-32.19,-53.01,-52.09,-54.59
2021/10/31 03:51:57+0000,-39.49,-47.36,-32.95,-53.85,-52.55,-55.25
2021/10/31 03:52:49+0000,-39.18,-46.98,-32.42,-53.11,-52.97,-55.01
2021/10/31 03:53:41+0000,-36.45,-48.20,-32.14,-53.47,-52.41,-54.88
2021/10/31 03:54:33+0000,-38.47,-49.06,-32.08,-53.58,-52.02,-54.77
2021/10/31 03:55:25+0000,-38.67,-47.19,-32.90,-53.33,-51.96,-54.76
2021/10/31 03:56:17+0000,-38.21,-46.50,-32.89,-53.60,-52.03,-54.90
2021/10/31 03:57:09+0000,-30.88,-47.30,-32.70,-53.91,-52.58,-55.17
2021/10/31 03:58:01+0000,-39.70,-48.66,-32.93,-53.75,-52.84,-54.88
2021/10/31 03:58:53+0000,-38.91,-49.22,-33.01,-54.39,-52.53,-55.44
2021/10/31 03:59:45+0000,-39.30,-48.49,-32.51,-53.57,-52.93,-55.43
2021/10/31 04:00:37+0000,-38.29,-49.42,-32.74,-53.59,-52.91,-55.66
2021/10/31 04:01:42+0000,-35.52,-48.07,-32.96,-53.14,-52.28,-55.40
2021/10/31 04:02:34+0000,-34.25,-48.59,-32.56,-52.82,-52.51,-55.34
2021/10/31 04:03:26+0000,-38.30,-48.61,-32.95,-52.83,-52.10,-54.83
2021/10/31 04:04:18+0000,-39.65,-49.04,-32.77,-53.36,-51.85,-55.04
2021/10/31 04:05:10+0000,-39.38,-49.52,-32.68,-53.44,-52.17,-55.19
2021/10/31 04:06:02+0000,-39.29,-49.31,-32.57,-52.43,-52.04,-55.40
2021/10/31 04:06:54+0000,-38.08,-48.61,-33.06,-52.99,-52.20,-55.29
2021/10/31 04:07:46+0000,-38.21,-48.16,-32.92,-52.52,-52.20,-55.02
2021/10/31 04:08:38+0000,-35.60,-47.17,-33.00,-52.18,-51.96,-55.52
2021/10/31 04:09:30+0000,-40.93,-47.34,-32.85,-52.97,-52.52,-55.43
2021/10/31 04:10:23+0000,-38.62,-48.21,-33.23,-52.67,-52.45,-55.63
2021/10/31 04:11:21+0000,-39.83,-48.18,-32.88,-52.54,-52.68,-55.02
2021/10/31 04:12:14+0000,-39.72,-46.74,-32.91,-52.41,-51.82,-55.22
2021/10/31 04:13:06+0000,-38.82,-48.79,-32.91,-52.35,-51.75,-55.20
2021/10/31 04:13:58+0000,-37.88,-47.68,-32.58,-54.48,-52.51,-55.32
2021/10/31 04:14:50+0000,-38.34,-47.23,-33.28,-54.20,-52.20,-55.72
2021/10/31 04:15:42+0000,-38.27,-47.38,-33.31,-53.35,-52.59,-55.13
2021/10/31 04:16:34+0000,-38.78,-46.25,-33.50,-52.76,-52.87,-55.14
2021/10/31 04:17:26+0000,-38.81,-47.07,-32.71,-52.60,-52.58,-54.92
2021/10/31 04:18:18+0000,-38.04,-45.97,-33.44,-53.09,-52.55,-55.71
2021/10/31 04:19:10+0000,-39.15,-46.19,-32.80,-53.02,-52.18,-55.09
2021/10/31 04:20:02+0000,-37.66,-46.74,-33.00,-52.72,-52.68,-55.01
2021/10/31 04:21:06+0000,-38.38,-50.07,-32.95,-52.43,-52.20,-54.92
2021/10/31 04:21:58+0000,-38.23,-46.95,-33.44,-52.63,-51.98,-55.15
2021/10/31 04:22:50+0000,-36.30,-45.88,-33.10,-52.59,-52.17,-55.08
2021/10/31 04:23:42+0000,-39.87,-47.22,-32.75,-53.22,-51.98,-55.41
2021/10/31 04:24:34+0000,-39.77,-48.75,-32.86,-52.59,-52.55,-55.30
2021/10/31 04:25:26+0000,-38.85,-47.18,-33.10,-53.18,-51.80,-55.05
2021/10/31 04:26:18+0000,-39.57,-48.63,-33.52,-52.91,-52.73,-55.03
2021/10/31 04:27:10+0000,-39.64,-47.45,-32.98,-52.94,-52.01,-55.07
2021/10/31 04:28:02+0000,-39.23,-47.22,-32.96,-52.35,-51.73,-55.08
2021/10/31 04:28:54+0000,-38.82,-47.85,-33.12,-53.11,-52.06,-54.89
2021/10/31 04:29:46+0000,-39.14,-47.50,-32.74,-53.08,-52.48,-55.64
2021/10/31 04:30:39+0000,-39.48,-46.72,-32.77,-52.99,-53.04,-54.58
2021/10/31 04:31:42+0000,-38.42,-47.28,-32.99,-53.31,-52.12,-54.63
2021/10/31 04:32:34+0000,-38.86,-47.31,-32.72,-52.50,-52.48,-54.72
2021/10/31 04:33:26+0000,-39.98,-48.78,-33.28,-52.95,-52.13,-55.17
2021/10/31 04:34:18+0000,-40.35,-47.80,-32.95,-52.82,-51.93,-55.16
2021/10/31 04:35:10+0000,-41.25,-47.25,-33.11,-52.89,-52.35,-55.08
2021/10/31 04:36:02+0000,-41.32,-47.47,-33.20,-52.75,-51.32,-54.98
2021/10/31 04:36:54+0000,-38.82,-47.39,-32.42,-53.03,-52.47,-54.90
2021/10/31 04:37:46+0000,-39.86,-47.47,-33.20,-52.34,-52.36,-55.01
2021/10/31 04:38:38+0000,-38.85,-47.80,-32.92,-52.26,-52.06,-55.42
2021/10/31 04:39:30+0000,-40.08,-46.96,-33.17,-52.60,-51.64,-55.50
2021/10/31 04:40:23+0000,-39.30,-47.85,-33.35,-52.82,-52.27,-55.51
2021/10/31 04:41:22+0000,-39.58,-48.13,-32.75,-52.86,-51.62,-54.55
2021/10/31 04:42:14+0000,-40.22,-47.71,-32.91,-52.36,-51.36,-55.03
2021/10/31 04:43:06+0000,-39.07,-48.88,-33.29,-52.93,-51.68,-55.69
2021/10/31 04:43:58+0000,-39.52,-48.24,-33.43,-53.36,-51.93,-54.93